Regional Weather Roundup
Issued by NWS San Angelo, TX

Home | Current Version | Previous Version | Text Only | Print | Product List | Glossary On
Versions: 1 2 3 4 5 6 7 8 9 10 11 12 13 14 15 16 17 18 19 20 21 22 23 24 25 26 27 28 29 30 31 32 33 34 35 36 37 38 39 40 41 42 43 44 45 46 47 48 49 50
000
ASUS44 KSJT 262311
RWRSJT
WEST CENTRAL TEXAS REGIONAL WEATHER ROUNDUP
NATIONAL WEATHER SERVICE SAN ANGELO TX
600 PM CDT MON SEP 26 2016

NOTE: "FAIR" INDICATES FEW OR NO CLOUDS BELOW 12,000 FEET WITH NO
SIGNIFICANT WEATHER AND/OR OBSTRUCTIONS TO VISIBILITY.

TXZ049-054-064>066-071>073-076>078-098-099-113-114-127-128-139-140-
154-155-168>170-270000
...LOCATIONS ACROSS WEST CENTRAL TEXAS...

CITY           SKY/WX    TMP DP  RH WIND       PRES   REMARKS
SAN ANGELO     CLOUDY    71  54  54 N13       30.17F
ABILENE        CLOUDY    70  51  51 NE10      30.18F
DYESS AFB      CLOUDY    70  48  44 NE13      30.17F
JUNCTION       CLOUDY    64  32  30 N10       30.16S
SWEETWATER     CLOUDY    68  45  43 N9        30.24R
BROWNWOOD      CLOUDY    70  55  60 N8        30.14S
COLEMAN        CLOUDY    69  53  57 N13G20    30.16S
SONORA         CLOUDY    64  55  72 NE16      30.22S
OZONA          CLOUDY    66  50  55 NE12G21   30.22S
BRADY          NOT AVBL
$$

TEXAS PANHANDLE/OKLAHOMA PANHANDLE

CITY           SKY/WX    TMP DP  RH WIND       PRES   REMARKS
AMARILLO       SUNNY     72  35  25 E8        30.29F
BORGER         SUNNY     73  34  23 SE6       30.27F
CANADIAN       SUNNY     75  38  26 CALM      30.24F
DALHART        SUNNY     75  33  21 NW5       30.30F
DUMAS          CLEAR     75  34  22 S5        30.29S
GUYMON         NOT AVBL
HEREFORD       MOCLDY    71  37  28 E7G18     30.31F
PAMPA          CLOUDY    71  36  27 E5        30.29F
PERRYTON       SUNNY     77  33  19 CALM      30.25S
$$

SOUTHERN PANHANDLE/SOUTH PLAINS/ROLLING PLAINS

CITY           SKY/WX    TMP DP  RH WIND       PRES   REMARKS
LUBBOCK        CLOUDY    67  37  33 E9        30.28S
SNYDER           N/A     69  38  33 CALM      30.24R
CHILDRESS      CLOUDY    72  38  29 NE8       30.23F
SEMINOLE       CLOUDY    64  45  49 CALM      30.30F
$$

PERMIAN BASIN

CITY           SKY/WX    TMP DP  RH WIND       PRES   REMARKS
MIDLAND        CLOUDY    68  34  28 NE13      30.26S
ODESSA         CLOUDY    67  36  31 N10       30.27F
WINK           CLOUDY    58  54  86 W9        30.26F
$$

FAR WEST/SOUTHWEST MOUNTAINS/TRANS PECOS

CITY           SKY/WX    TMP DP  RH WIND       PRES   REMARKS
ALPINE         CLOUDY    50  49  98 NE9       30.38S
DRYDEN           N/A     60  56  86 N6        30.21S
EL PASO        LGT RAIN  59  47  64 SE10      30.30S
FORT STOCKTON  LGT RAIN  55  54  96 W13       30.29S
GUADALUPE PASS CLOUDY    52  41  66 NE28      30.34R
MARFA          LGT RAIN N/A N/A N/A NE21G26   30.31F
PECOS          RAIN      58  55  88 W5        30.30
$$

DALLAS/FORT WORTH METROPLEX

CITY           SKY/WX    TMP DP  RH WIND       PRES   REMARKS
DFW AIRPORT    CLOUDY    67  58  72 N6        30.11F
FTW MEACHAM    CLOUDY    67  60  78 E7        30.12F
DAL-EXECUTIVE  LGT RAIN  64  62  93 N8        30.11F FOG
GRAND PRAIRIE  CLOUDY    66  55  68 N10       30.13F
ADDISON        CLOUDY    66  61  82 NE7       30.12F
MESQUITE       CLOUDY    64  64 100 NW8       30.11F FOG
LANCASTER      CLOUDY    64  60  87 N10       30.12F
$$

NORTH CENTRAL TEXAS

CITY           SKY/WX    TMP DP  RH WIND       PRES   REMARKS
SHRMAN/DENISON MOCLDY    70  61  73 SE5       30.13S
GAINESVILLE      N/A     73  52  46 N8        30.14F
BRIDGEPORT     CLOUDY    76  54  46 N9G17     30.15S
DENTON         CLOUDY    68  61  78 E6        30.12F
WAXAHACHIE     CLOUDY    62  62 100 N10       30.12F
GRANBURY       CLOUDY    70  59  68 NE3       30.14S
$$

WESTERN NORTH TEXAS

CITY           SKY/WX    TMP DP  RH WIND       PRES   REMARKS
WICHITA FALLS  MOSUNNY   74  42  31 N15       30.16F
VERNON         CLEAR     73  33  22 N8        30.20F
BRECKENRIDGE     N/A     73  47  39 N8G23     30.16R HAZE
COMANCHE       CLOUDY    68  60  73 NE7       30.15S
$$

CENTRAL AND SOUTH CENTRAL TEXAS

CITY           SKY/WX    TMP DP  RH WIND       PRES   REMARKS
AUSTIN/BERGSTM CLOUDY    71  65  81 N15       30.05F
WACO           CLOUDY    66  61  84 N14       30.10S
HILLSBORO      CLOUDY    64  59  86 N12       30.11S
TEMPLE         NOT AVBL
KILLEEN-GRAY   CLOUDY    66  60  80 N12       30.09F
FORT HOOD      CLOUDY    66  60  81 N12       30.08S
GEORGETOWN     CLOUDY    68  61  77 N14       30.08F
LAGO VISTA     CLOUDY    67  63  86 NE10G17   30.09S
SAN MARCOS     CLOUDY    70  66  88 N14       30.09R
NEW BRAUNFELS  CLOUDY    70  66  87 N14G23    30.05R
RANDOLPH AFB   CLOUDY    70  68  93 N13       30.06R
SAN ANTONIO    CLOUDY    72  65  78 N12       30.06S
STINSON        CLOUDY    75  67  76 N12       30.03R
PLEASANTON     NOT AVBL
LA GRANGE      DRIZZLE   76  71  85 N9        30.01R
GIDDINGS       CLOUDY    71  66  83 N9G18     30.08R
$$

EAST TEXAS

CITY           SKY/WX    TMP DP  RH WIND       PRES   REMARKS
PARIS          CLOUDY    66  57  72 NE6       30.11F
CLARKSVILLE    NOT AVBL
TYLER          CLOUDY    73  67  81 N8        30.05F
LONGVIEW       CLOUDY    76  66  71 N7        30.03S
PALESTINE      CLOUDY    74  70  87 N8        30.05S
NACOGDOCHES    CLOUDY    79  72  78 N6        30.00S
$$

TEXAS HILL COUNTRY AND EDWARDS PLATEAU

CITY           SKY/WX    TMP DP  RH WIND       PRES   REMARKS
LLANO          CLOUDY    66  66 100 CALM      30.16R
HORSESHOE BAY  RAIN      67  62  85 N6        30.11S
KERRVILLE      CLOUDY    64  61  91 N9        30.13R
FREDERICKSBRG  CLOUDY    63  59  88 N10       30.14R
ROCKSPRINGS    CLOUDY    63  59  88 N10       30.18R
HONDO          CLOUDY    76  66  71 N17       30.05S
UVALDE         CLOUDY    78  66  68 NE12      30.06S
DEL RIO        CLOUDY    66  65  96 W12       30.12R
$$

SOUTHEAST TEXAS

CITY           SKY/WX    TMP DP  RH WIND       PRES   REMARKS
COLLEGE STN    CLOUDY    73  70  90 N10       30.03S FOG
CALDWELL       NOT AVBL
CROCKETT       NOT AVBL
BRENHAM        CLOUDY    75  72  90 N10       30.04R FOG
HUNTSVILLE     CLOUDY    78  71  79 NW10      30.01S
CONROE         MOSUNNY   81  72  74 N8        29.99R
HOUSTON BUSH   CLOUDY    83  73  72 NW9       29.97S
HOUSTON HOBBY  CLOUDY    77  73  87 CALM      29.97R
PERLAND        LGT RAIN  76  73  91 CALM      29.97F FOG
WHARTON        CLOUDY   N/A N/A N/A SE3       29.98S
$$

THE UPPER TEXAS COAST

CITY           SKY/WX    TMP DP  RH WIND       PRES   REMARKS
ORANGE         DRIZZLE   76  76 100 CALM      29.98R
PORT ARTHUR    CLOUDY    78  75  90 NW3       29.96S
GALVESTON      CLOUDY    81  75  82 N8        29.96S
ANGLETON       CLOUDY    81  76  84 N5        29.96S
BAY CITY       DRIZZLE   77  76  96 CALM      29.97R
$$

TEXAS COASTAL BEND, RIO GRANDE PLAINS DEEP SOUTH TEXAS

CITY           SKY/WX    TMP DP  RH WIND       PRES   REMARKS
VICTORIA       CLOUDY    77  72  84 E9        29.99R
BEEVILLE       FAIR      78  74  87 E8        29.99S
ROCKPORT       CLOUDY    78  73  84 N9        29.96F
PORT ARANSAS   CLOUDY    81  75  81 N16G23    29.96R
PORT LAVACA    LGT RAIN  73  73 100 N7        29.99R
CORPUS CHRISTI CLOUDY    81  75  82 N13       29.96R
KINGSVILLE NAS LGT RAIN  78  78 100 N6        29.96R
COTULLA        CLOUDY    83  70  64 NE9       29.99S
LAREDO         CLOUDY    80  75  84 E7        29.98F
BROWNSVILLE    CLOUDY    84  73  69 NE10      29.91F
PORT ISABEL    CLOUDY    84  74  71 NE14      29.91S
HEBBRONVILLE   CLOUDY    77  72  85 NE10      29.99F
MCALLEN        LGT RAIN  81  75  82 NE6       29.93F
WESLACO        CLOUDY    81  71  71 NE7       29.91S
FALFURRIAS     PTCLDY    79  74  83 N8        29.95S
EDINBURG       PTCLDY    84  73  67 E9        29.94R
$$




USA.gov is the U.S. government's official web portal to all federal, state and local government web resources and services.